#timestamp,LO_Frequency,Hit 
1502474415.0,286046993.0,N
1502474416.0,286046993.0,N
1502474435.8,286046994.2,N
1502474455.6,286046994.7,N
1502474475.4,286046996.1,N
1502474495.3,286046993.4,N
1502474515.1,286046993.5,N
1502474535.8,286046994.4,N
1502474555.7,286046994.4,N
1502474575.5,286046994.5,N
1502474595.3,286046994.3,N
1502474615.2,286046997.3,N
1502474635.9,286046999.0,N
1502474655.7,286047000.8,N
1502474675.6,286046998.4,N
1502474695.4,286046997.4,N
1502474715.2,286046997.9,N
1502474735.1,286046997.3,N
1502474736.0,286046997.3,N
1502474755.8,286046994.8,N
1502474775.6,286046994.7,N
1502474795.4,286046996.4,N
1502474815.3,286046993.4,P
1502474835.1,286046999.2,N
1502474855.9,286047001.1,N
1502474875.7,286046999.8,N
1502474895.5,286047002.4,N
1502474915.3,286047002.4,N
1502474935.2,286047000.8,N
1502474955.0,286047002.7,N
1502474955.9,286047002.7,N
1502474975.7,286046999.8,N
1502474995.6,286047000.7,N
1502475015.4,286047001.0,N
1502475035.2,286046998.2,N
1502475055.1,286047000.2,N
1502475056.0,286047000.2,N
1502475075.8,286046998.4,N
1502475095.6,286046996.5,N
1502475115.5,286046999.0,N
1502475135.3,286046996.6,N
1502475155.1,286046995.3,N
1502475175.9,286046999.3,N
1502475195.7,286046999.0,N
1502475215.5,286046997.4,N
1502475235.4,286046995.4,N
1502475255.2,286046993.4,N
1502475275.0,286046994.7,N
1502475275.9,286046994.7,N
1502475295.7,286046992.9,N
1502475315.6,286046993.5,N
1502475335.4,286046995.4,N
1502475355.2,286046999.2,N
1502475375.1,286046999.3,N
1502475376.0,286046999.3,N
1502475395.8,286046996.5,N
1502475415.6,286046999.0,N
1502475435.5,286046996.8,N
1502475455.3,286046997.6,N
1502475475.1,286046997.4,N
1502475495.9,286046997.3,N
1502475515.7,286046997.9,N
1502475535.5,286046996.8,N
1502475555.4,286046995.0,N
1502475575.2,286046998.0,N
1502475595.0,286046994.9,N
1502475595.9,286046994.9,N
1502475615.8,286046997.5,N
1502475635.6,286046997.7,N
1502475655.4,286046997.9,N
1502475675.2,286046997.2,N
1502475695.1,286046999.5,N
1502475696.0,286046999.5,N
1502475715.8,286047000.2,N
1502475735.6,286047000.9,N
1502475755.5,286046998.1,N
1502475775.3,286046997.2,N
1502475795.1,286046995.5,N
1502475815.9,286046999.5,N
1502475835.7,286046996.9,N
1502475855.5,286046996.9,N
1502475875.4,286047000.8,N
1502475895.2,286046999.4,N
1502475915.0,286047003.2,N
1502475915.9,286047003.2,N
1502475935.8,286047001.9,N
1502475955.6,286047003.7,N
1502475975.4,286047003.4,N
1502475995.3,286047006.0,N
1502476015.1,286047005.4,N
1502476016.0,286047005.4,N
1502476035.8,286047003.6,N
1502476055.7,286047000.0,N
1502476075.5,286047000.6,N
1502476095.3,286047001.0,N
1502476115.2,286046999.0,N
1502476135.9,286046996.5,N
1502476155.7,286046999.1,N
1502476175.5,286046998.6,N
1502476195.4,286047002.7,N
1502476215.2,286047000.5,N
1502476235.0,286047000.2,N
1502476235.9,286047000.2,N
1502476255.8,286047000.2,N
1502476275.6,286047003.1,N
1502476295.4,286047003.9,N
1502476315.3,286047003.4,N
1502476335.1,286047002.9,N
1502476336.0,286047002.9,N
1502476355.8,286047003.4,N
1502476375.7,286047005.6,N
1502476395.5,286047007.6,P
1502476415.3,286047003.3,N
1502476435.2,286047002.9,N
1502476455.9,286047010.5,P
1502476475.7,286047005.1,N
1502476495.6,286047006.0,N
1502476515.4,286047005.9,N
1502476535.2,286047003.4,N
1502476555.1,286047005.5,N
1502476556.0,286047005.5,N
1502476575.8,286047004.2,N
1502476595.6,286047003.5,N
1502476615.5,286047005.2,N
1502476635.3,286047005.3,N
1502476655.1,286047004.5,N
1502476675.9,286047006.3,P
1502476695.7,286047000.4,N
1502476715.5,286046999.3,N
1502476735.4,286046999.4,N
1502476755.2,286047000.2,N
1502476775.0,286047000.1,N
1502476775.9,286047000.1,N
1502476795.8,286046999.4,N
1502476815.6,286046999.8,N
1502476835.4,286047000.6,N
1502476855.2,286046996.5,N
1502476875.1,286046998.9,N
1502476876.0,286046998.9,N
1502476895.8,286046998.8,N
1502476915.6,286046997.4,N
1502476935.5,286046994.9,N
1502476955.3,286046994.9,N
1502476975.1,286046998.9,N
1502476995.9,286046999.9,N
1502477015.7,286047000.5,N
1502477035.5,286046999.7,N
1502477055.4,286047002.4,N
1502477075.2,286047000.8,N
1502477095.0,286047000.2,N
1502477095.9,286047000.2,N
1502477115.8,286047000.4,N
1502477135.6,286046998.2,N
1502477155.4,286047000.2,N
1502477175.2,286046998.6,N
1502477195.1,286046998.4,N
1502477196.0,286046998.4,N
1502477215.8,286047002.3,N
1502477235.6,286047001.9,N
1502477255.5,286047004.3,N
1502477275.3,286047002.0,N
1502477295.1,286047002.3,N
1502477315.9,286046999.9,N
1502477335.7,286046998.6,N
1502477355.5,286046996.6,N
1502477375.4,286046996.5,N
1502477395.2,286047000.4,N
1502477415.0,286047004.2,N
1502477415.9,286047004.2,N
1502477435.8,286047007.2,N
1502477455.6,286047007.1,N
1502477475.4,286047003.2,N
1502477495.3,286047004.4,N
1502477515.1,286047003.3,N
1502477516.0,286047003.3,N
1502477535.8,286047001.5,N
1502477555.7,286047001.9,N
1502477575.5,286047002.8,N
1502477595.3,286047000.2,N
1502477615.1,286047001.0,N
1502477635.9,286047000.4,N
1502477655.7,286046999.5,N
1502477675.5,286047000.4,N
1502477695.4,286047001.0,N
1502477715.2,286046998.8,N
1502477735.0,286046998.2,N
1502477735.9,286046998.2,N
1502477755.8,286046998.2,N
1502477775.6,286046998.9,N
1502477795.4,286047001.2,N
1502477815.3,286047000.9,N
1502477835.1,286046999.1,N
1502477836.0,286046999.1,N
1502477855.8,286046994.9,N
1502477875.7,286046996.4,N
1502477895.5,286046995.7,N
1502477915.3,286046995.7,N
1502477935.2,286046995.3,N
1502477955.9,286046995.1,N
1502477975.7,286046997.1,N
1502477995.5,286046999.6,N
